Precipitable_Water
1.61 1.61 1.44 1.54 1.55 1.44 1.37 1.32 1.31 1.45 1.49 1.45 1.44 1.65 1.67 1.88 1.90 2.03 1.96 1.89 2.14 1.88 1.78 1.69 1.55 1.60 1.54 1.58 1.54 1.51 1.53 1.42 1.39 1.43 1.30 1.24 1.28 1.30 1.29 1.38 1.46 1.42 1.60
1.62 1.60 1.47 1.61 1.63 1.45 1.38 1.37 1.32 1.41 1.48 1.54 1.62 1.62 1.80 1.83 1.83 2.02 1.92 2.02 1.96 1.82 1.70 1.78 1.53 1.56 1.41 1.42 1.55 1.66 1.51 1.41 1.50 1.34 1.37 1.13 1.15 1.24 1.33 1.33 1.37 1.49 1.50
1.56 1.53 1.51 1.52 1.55 1.47 1.33 1.34 1.29 1.40 1.49 1.61 1.63 1.62 1.67 1.87 1.88 1.89 1.80 1.89 2.05 1.87 1.89 1.69 1.63 1.44 1.50 1.29 1.35 1.45 1.55 1.37 1.22 1.40 1.27 1.27 1.09 1.15 1.26 1.25 1.40 1.37 1.42
1.59 1.57 1.49 1.57 1.68 1.40 1.18 1.25 1.29 1.38 1.49 1.58 1.57 1.62 1.51 1.57 1.67 1.75 1.93 1.82 1.88 1.91 1.80 1.65 1.60 1.41 1.73 1.63 1.29 1.40 1.65 1.45 1.15 1.17 1.27 1.41 1.41 1.35 0.97 1.20 1.22 1.27 1.36
1.60 1.58 1.56 1.60 1.67 1.43 1.24 1.30 1.44 1.50 1.50 1.58 1.75 1.57 1.53 1.84 1.81 1.87 2.11 1.84 1.83 1.85 1.76 1.68 1.65 1.56 1.45 1.32 1.70 1.48 1.37 1.37 1.27 1.32 1.28 1.19 1.34 1.46 1.38 1.02 1.10 1.28 1.33
1.71 1.70 1.71 1.71 1.61 1.50 1.33 1.38 1.45 1.55 1.60 1.60 1.61 1.60 1.57 1.67 1.75 1.86 1.75 1.77 1.74 1.78 1.76 1.71 1.79 1.63 1.88 1.41 1.40 1.46 1.34 1.47 1.38 1.40 1.31 1.34 1.43 1.40 1.29 1.17 1.27 1.23 1.33
1.70 1.64 1.72 1.58 1.52 1.52 1.34 1.38 1.48 1.52 1.69 1.67 1.71 1.59 1.57 1.56 1.76 1.82 1.73 1.78 1.75 1.65 1.69 1.75 1.81 1.71 1.66 1.61 1.52 1.42 1.51 1.36 1.27 1.24 1.42 1.39 1.57 1.58 1.47 1.43 1.35 1.33 1.36
1.57 1.59 1.66 1.80 1.53 1.58 1.43 1.39 1.46 1.52 1.67 1.69 1.70 1.69 1.63 1.58 1.64 1.73 1.75 1.81 1.95 2.06 1.75 1.72 1.83 1.70 1.75 1.65 1.60 1.52 1.39 1.45 1.38 1.23 1.45 1.50 1.59 1.60 1.57 1.54 1.42 1.23 1.28
1.64 1.52 1.58 1.63 1.58 1.70 1.52 1.40 1.48 1.57 1.66 1.73 1.75 1.70 1.70 1.62 1.58 1.72 1.77 1.84 1.87 2.07 1.81 1.73 1.78 1.72 1.71 1.68 1.72 1.54 1.38 1.72 1.41 1.40 1.33 1.45 1.58 1.54 1.59 1.51 1.54 1.51 1.28
1.63 1.83 1.72 1.67 1.59 1.62 1.62 1.52 1.49 1.52 1.61 1.70 1.76 1.72 1.69 1.71 1.62 1.59 1.65 1.72 1.82 1.72 2.08 1.70 1.79 1.76 1.71 1.72 1.65 1.58 1.59 1.42 1.46 1.43 1.41 1.31 1.62 1.55 1.53 1.54 1.53 1.53 1.42
1.43 1.65 1.74 1.97 1.88 1.84 1.68 1.66 1.56 1.54 1.58 1.65 1.71 1.72 1.71 1.72 1.72 1.60 1.64 1.61 1.60 1.69 1.69 1.80 1.90 1.90 1.75 1.73 1.67 1.64 1.63 1.50 1.41 1.49 1.54 1.45 1.43 1.50 1.52 1.49 1.49 1.48 1.45
1.36 1.51 1.67 1.77 1.89 1.85 1.98 2.06 1.62 1.59 1.63 1.70 1.67 1.70 1.74 1.74 1.71 1.67 1.66 1.68 1.58 1.59 1.62 1.73 1.82 1.92 1.83 1.79 1.65 1.57 1.55 1.50 1.43 1.43 1.42 1.37 1.41 1.33 1.37 1.53 1.49 1.47 1.55
1.14 1.36 1.51 1.67 1.65 1.86 1.90 1.82 1.96 1.96 1.69 1.63 1.66 1.68 1.69 1.72 1.72 1.70 1.70 1.69 1.63 1.56 1.57 1.69 1.77 1.78 1.81 1.78 1.75 1.66 1.59 1.64 1.55 1.50 1.43 1.38 1.40 1.35 1.37 1.42 1.35 1.42 1.44
0.98 1.11 1.25 1.32 1.40 1.63 1.80 1.85 1.80 1.81 1.82 1.87 1.72 1.63 1.65 1.69 1.77 1.80 1.76 1.73 1.68 1.59 1.53 1.55 1.66 1.77 1.75 1.73 1.75 1.79 1.75 1.66 1.67 1.63 1.56 1.49 1.41 1.37 1.33 1.30 1.33 1.28 1.33
0.89 0.99 1.06 1.21 1.37 1.54 1.66 1.85 1.85 1.82 1.83 1.81 1.75 1.83 1.72 1.70 1.74 1.74 1.79 1.75 1.74 1.65 1.61 1.54 1.53 1.59 1.67 1.67 1.68 1.68 1.71 1.72 1.65 1.68 1.60 1.55 1.51 1.47 1.46 1.41 1.40 1.34 1.34
0.80 0.84 0.93 1.02 1.11 1.25 1.39 1.56 1.75 1.77 1.87 1.77 1.74 1.79 1.74 1.73 1.70 1.81 1.79 1.79 1.74 1.71 1.65 1.59 1.55 1.47 1.44 1.51 1.59 1.62 1.61 1.57 1.54 1.51 1.53 1.56 1.50 1.41 1.29 1.26 1.28 1.46 1.36
0.75 0.77 0.79 0.86 0.95 1.03 1.15 1.27 1.40 1.48 1.61 1.75 1.80 1.78 1.76 1.74 1.77 1.79 1.75 1.71 1.72 1.73 1.71 1.64 1.61 1.54 1.47 1.36 1.32 1.43 1.42 1.52 1.59 1.52 1.45 1.46 1.46 1.46 1.36 1.23 1.16 1.12 1.08
0.64 0.68 0.71 0.81 0.88 0.94 0.95 1.03 1.19 1.28 1.38 1.55 1.63 1.77 1.74 1.77 1.75 1.77 1.75 1.72 1.71 1.65 1.67 1.67 1.69 1.59 1.58 1.47 1.36 1.28 1.29 1.30 1.32 1.43 1.53 1.45 1.36 1.43 1.50 1.36 1.30 1.25 1.19
0.60 0.63 0.67 0.69 0.73 0.83 0.89 0.91 0.96 1.11 1.25 1.29 1.39 1.62 1.75 1.77 1.76 1.72 1.73 1.77 1.76 1.73 1.70 1.68 1.68 1.63 1.63 1.59 1.48 1.40 1.32 1.25 1.24 1.25 1.24 1.33 1.39 1.38 1.28 1.35 1.32 1.20 1.18
0.62 0.62 0.63 0.64 0.68 0.74 0.78 0.80 0.82 0.88 1.04 1.18 1.26 1.35 1.49 1.73 1.82 1.80 1.82 1.91 1.90 1.82 1.79 1.70 1.76 1.78 1.70 1.68 1.59 1.50 1.44 1.31 1.22 1.26 1.23 1.16 1.17 1.26 1.34 1.24 1.19 1.12 1.11
0.61 0.60 0.61 0.61 0.65 0.68 0.70 0.72 0.75 0.76 0.90 0.99 1.04 1.19 1.30 1.37 1.60 1.75 1.80 1.78 1.85 1.94 1.83 1.70 1.73 1.76 1.81 1.77 1.66 1.60 1.53 1.40 1.31 1.25 1.21 1.19 1.11 1.06 1.11 1.19 1.25 1.18 1.29
0.56 0.58 0.55 0.55 0.59 0.62 0.63 0.64 0.66 0.77 0.80 0.81 0.86 0.92 1.02 1.15 1.24 1.43 1.61 1.63 1.68 1.76 1.86 1.72 1.76 1.84 1.91 1.88 1.76 1.68 1.60 1.56 1.47 1.35 1.35 1.36 1.33 1.28 1.24 1.24 1.21 1.20 1.25
0.47 0.51 0.52 0.52 0.56 0.58 0.60 0.57 0.62 0.70 0.72 0.73 0.74 0.78 0.85 0.90 1.01 1.04 1.23 1.34 1.53 1.56 1.54 1.72 1.61 1.83 1.97 2.00 1.89 1.74 1.66 1.62 1.61 1.57 1.52 1.51 1.50 1.49 1.41 1.36 1.35 1.34 1.33
0.47 0.49 0.47 0.48 0.49 0.54 0.56 0.56 0.57 0.59 0.59 0.60 0.63 0.67 0.71 0.77 0.85 0.92 0.97 1.07 1.18 1.36 1.42 1.59 1.67 1.87 1.94 2.01 2.03 2.01 1.88 1.80 1.76 1.68 1.62 1.57 1.55 1.54 1.52 1.52 1.45 1.39 1.37
0.43 0.43 0.41 0.43 0.46 0.51 0.52 0.56 0.59 0.58 0.55 0.52 0.50 0.54 0.60 0.65 0.71 0.80 0.85 0.89 1.14 1.30 1.42 1.46 1.63 1.64 1.88 2.07 2.11 2.10 2.16 2.06 1.99 1.87 1.74 1.59 1.53 1.46 1.40 1.42 1.42 1.37 1.32
0.45 0.40 0.40 0.41 0.44 0.45 0.47 0.51 0.55 0.57 0.55 0.53 0.52 0.50 0.51 0.56 0.62 0.71 0.78 0.88 0.94 1.09 1.13 1.22 1.32 1.47 1.56 1.75 1.89 2.07 2.21 2.20 2.17 2.08 2.01 1.68 1.62 1.60 1.56 1.49 1.43 1.42 1.35
Wind_Speed
20 18 17 16 16 16 16 16 15 15 14 12 11 10 9 8 7 6 4 5 5 5 6 6 7 6 6 7 7 8 7 6 6 4 6 7 6 7 8 9 11 11 11
21 19 19 18 16 16 17 17 17 16 15 13 12 11 9 7 7 6 5 5 5 5 6 6 6 6 6 7 6 7 6 6 6 4 4 6 8 8 9 9 11 11 11
21 21 20 19 17 17 17 18 18 17 16 14 13 11 10 8 7 6 6 5 4 5 5 6 5 7 6 6 7 7 6 6 5 6 5 6 6 8 9 10 11 12 11
20 21 21 20 19 17 17 19 19 18 18 15 14 12 12 10 8 7 7 5 5 5 5 6 5 7 5 8 7 7 5 6 6 6 5 6 7 8 10 10 11 11 10
21 21 22 21 19 17 18 19 19 19 18 17 14 13 13 10 10 8 9 6 5 5 5 6 6 6 6 7 7 6 6 7 6 5 6 6 8 8 7 11 11 10 9
21 20 21 22 21 19 19 20 20 19 18 17 16 14 13 12 10 10 9 7 6 5 6 6 6 6 5 6 7 8 7 5 5 5 7 7 7 7 8 10 10 10 9
19 22 21 23 23 22 21 21 21 20 19 18 16 16 15 14 13 11 10 8 7 6 7 6 6 6 6 6 7 8 8 7 6 7 6 8 7 8 10 7 9 10 8
21 20 22 25 23 24 22 22 22 21 21 20 18 16 15 15 15 13 12 10 9 8 8 7 7 6 6 6 7 7 9 8 8 9 8 8 8 8 9 8 8 7 7
22 21 22 23 24 25 24 23 22 22 22 21 20 18 17 16 16 15 14 12 11 10 9 8 8 7 7 7 7 7 9 8 9 9 10 9 8 9 9 9 8 6 5
15 15 16 20 23 25 26 24 24 23 22 22 21 19 19 17 17 16 16 15 13 13 11 10 9 8 8 7 7 7 8 9 9 9 11 11 8 10 10 10 9 9 7
13 15 14 18 16 17 24 25 25 24 23 23 22 21 20 20 18 18 17 17 16 14 14 12 12 10 10 9 9 8 8 9 10 10 10 12 12 11 11 11 11 11 10
11 13 15 14 16 16 16 20 25 25 25 24 24 23 22 21 21 20 19 18 18 17 16 15 14 13 12 12 11 10 9 9 10 10 11 12 13 13 14 12 12 12 12
10 11 12 12 13 16 17 16 17 18 24 26 25 25 24 23 22 22 21 20 19 19 18 17 17 16 15 14 14 13 12 11 10 10 11 12 13 13 14 15 15 14 14
12 12 13 12 11 12 18 17 16 16 17 18 23 25 25 25 24 23 23 22 22 21 20 20 19 18 17 16 16 15 14 13 13 12 12 12 13 14 14 15 15 16 16
11 11 13 14 13 13 14 17 17 17 17 18 18 20 24 26 26 26 25 25 24 23 22 22 22 21 20 19 18 18 17 16 15 14 14 14 14 14 15 15 15 16 17
13 13 12 12 13 14 14 16 16 18 20 21 21 22 23 23 26 27 27 27 26 26 25 25 24 24 23 22 21 20 19 19 18 17 16 16 15 16 16 17 18 17 17
15 16 15 15 15 14 15 15 17 19 18 20 22 23 23 26 26 27 28 28 29 29 28 28 28 27 26 25 25 25 24 22 21 20 19 18 17 18 17 17 18 19 19
18 18 18 18 18 18 18 17 18 19 19 20 19 21 24 25 27 28 28 30 30 30 30 31 30 31 30 30 29 28 28 27 26 24 22 22 21 20 20 20 20 20 20
21 21 21 21 22 21 21 21 20 20 21 23 23 22 21 24 25 27 27 29 31 32 32 32 32 33 33 32 32 32 31 31 30 29 29 27 26 25 25 24 24 23 22
24 24 25 25 24 24 24 24 24 24 23 22 25 25 26 27 26 27 27 27 30 32 33 34 35 35 35 34 34 35 34 33 32 32 32 32 32 31 30 29 28 28 27
26 27 27 28 28 28 28 29 28 28 28 27 27 27 28 29 31 31 30 31 31 34 35 36 36 37 36 36 36 36 37 36 34 34 33 33 33 34 35 34 33 32 30
27 28 29 30 31 32 33 33 33 33 32 32 32 31 30 30 32 34 34 35 34 35 36 36 35 36 37 38 37 37 38 38 38 37 35 34 34 34 35 35 35 34 33
28 29 30 31 32 34 35 37 38 38 38 37 37 36 36 35 34 34 36 37 36 35 33 33 33 35 36 37 37 38 39 39 40 38 37 36 35 33 33 35 35 35 35
27 29 30 32 33 34 35 37 39 41 43 43 43 42 41 40 39 38 37 37 36 35 34 33 32 34 35 36 36 36 38 39 39 40 40 40 38 37 36 34 35 35 36
25 27 29 31 34 35 37 38 39 41 43 45 46 47 46 45 44 43 41 40 39 39 37 36 35 34 32 33 35 35 32 35 37 36 36 37 37 38 37 37 37 35 34
24 26 28 30 32 34 36 38 40 41 44 46 47 48 48 49 48 47 45 45 44 43 43 42 40 39 39 39 40 40 38 35 35 34 33 34 35 35 34 34 35 35 35
Wind_Direction
193 192 193 191 191 192 192 190 188 185 184 181 178 175 173 171 168 158 146 153 147 144 146 144 142 135 138 131 137 141 139 133 130 116 120 105 112 111 120 123 124 122 123
196 197 196 196 195 195 197 195 192 190 189 187 185 182 176 178 173 175 162 158 155 152 153 159 160 151 142 146 147 150 155 142 133 116 118 136 117 114 120 128 132 129 126
198 199 198 199 201 199 201 198 195 192 193 193 190 189 188 186 179 178 176 173 165 162 157 163 162 166 159 156 152 153 147 148 143 134 115 123 131 120 129 134 134 134 130
202 202 200 201 200 199 198 196 195 195 194 193 195 193 192 190 191 187 179 176 177 172 173 169 163 168 164 169 168 165 154 148 149 140 126 133 135 126 131 138 138 135 134
201 203 202 203 201 199 197 195 195 196 196 198 200 198 199 196 194 191 191 183 185 183 175 175 174 175 179 179 184 172 170 163 155 144 143 136 146 143 133 146 146 143 141
201 204 203 202 201 201 198 196 196 197 198 200 203 204 204 206 205 198 196 195 191 190 183 182 181 180 178 182 183 178 175 175 173 157 158 152 151 160 155 150 151 150 150
208 207 208 202 203 203 200 200 200 201 201 203 205 209 211 210 212 204 205 201 201 195 192 191 186 187 191 186 187 188 189 189 188 185 176 171 161 155 157 154 158 157 159
206 204 206 207 205 204 204 203 203 206 207 208 210 211 212 212 214 212 213 211 209 208 198 203 196 197 191 189 194 196 200 199 199 194 185 177 172 174 169 167 165 174 177
208 204 205 206 206 207 207 208 207 210 212 211 213 215 214 215 215 215 215 214 213 215 209 203 203 204 201 199 197 201 196 196 200 194 194 188 189 186 188 186 191 186 189
210 205 207 207 207 210 211 210 211 212 213 213 214 217 217 218 219 219 219 219 219 219 219 214 210 209 208 206 203 202 203 205 201 202 201 204 201 201 200 202 204 205 214
215 208 212 205 204 209 212 212 214 214 215 217 218 219 221 222 223 222 223 223 224 225 223 222 219 218 217 215 214 213 205 207 210 212 212 213 217 211 212 216 218 222 228
209 210 207 211 206 210 214 216 216 218 222 222 222 223 225 225 225 226 226 227 227 228 228 227 226 225 225 224 222 218 215 212 213 215 219 221 221 224 227 227 230 234 242
210 212 208 204 223 225 215 215 216 219 224 222 224 226 227 227 228 229 230 229 229 229 229 228 228 229 229 229 227 224 223 222 221 221 223 225 227 230 232 234 238 241 246
217 218 218 224 237 220 220 216 218 223 223 222 222 228 227 229 231 232 232 232 232 232 231 231 231 232 232 231 229 228 230 230 231 231 232 233 234 236 237 239 243 246 251
217 222 225 231 237 226 227 230 227 228 227 227 228 232 229 230 233 235 234 234 234 234 234 234 234 234 234 234 233 232 233 234 236 239 240 241 241 242 243 244 246 249 252
220 224 230 234 236 237 238 239 234 239 239 237 239 242 236 236 235 235 235 235 234 235 235 236 237 237 237 237 236 235 236 238 240 242 244 246 246 246 248 249 252 255 260
228 232 234 237 241 241 241 242 240 243 247 242 245 244 243 240 239 239 237 236 237 237 238 238 238 239 240 240 239 238 239 242 243 244 246 248 248 248 252 253 255 258 260
236 238 241 243 245 246 247 247 248 247 244 241 250 246 245 245 242 241 240 239 239 239 241 241 242 241 241 241 241 241 242 243 245 247 248 249 251 253 253 255 258 260 263
241 243 246 249 249 249 249 250 250 250 248 247 251 250 249 246 245 242 245 242 242 242 243 243 244 244 244 243 242 242 244 245 246 248 249 251 253 254 255 258 259 261 264
246 248 250 251 251 251 252 253 253 252 251 252 252 252 251 250 247 245 247 248 246 245 245 246 247 246 245 244 243 243 244 246 248 249 251 252 253 255 255 257 259 261 263
250 252 252 253 253 254 255 254 254 254 254 255 256 255 253 252 249 248 249 248 252 251 250 249 249 247 245 245 244 244 244 246 248 249 251 253 253 254 255 256 258 260 263
253 254 255 255 256 256 256 255 255 256 256 256 256 256 256 255 252 250 249 250 254 256 252 248 250 248 246 245 246 245 245 246 247 249 252 254 255 255 256 256 257 259 261
256 256 257 258 259 259 258 258 257 257 257 257 256 256 256 256 255 254 253 253 255 253 245 246 251 250 246 246 246 246 246 247 248 249 251 252 254 256 258 258 258 259 259
259 261 261 260 261 261 262 261 260 259 258 257 257 256 255 255 255 255 253 252 251 247 245 249 251 251 248 245 246 249 248 248 249 250 251 252 254 255 257 259 259 259 259
264 265 265 264 264 264 264 264 262 261 260 258 257 256 255 254 254 253 252 251 250 247 245 251 252 251 252 248 246 249 252 249 249 249 251 250 251 253 255 256 257 258 258
269 271 271 270 269 268 267 266 265 264 262 261 258 256 255 253 252 252 252 250 250 249 248 251 251 252 252 255 253 252 250 250 250 248 250 250 250 252 253 255 255 255 256